Home   Weather   Netherlands   Hoofddorp   Past weeks
Flag for Netherlands

Past Weather in Hoofddorp, Netherlands — Yesterday and Last 2 Weeks

Currently: 30 °F. Ice fog. (Weather station: Amsterdam Schiphol Airport, Netherlands). See more current weather

Past Weather in Hoofddorp — Graph

°F

Hoofddorp Temperature Yesterday

Maximum temperature yesterday: 36 °F (at 12:55 pm)
Minimum temperature yesterday: 27 °F (at 5:55 am)
Average temperature yesterday: 31 °F

High & Low Weather Summary for the Past Weeks

 TemperatureHumidityPressure
High54 °F (Nov 25, 12:25 pm)100% (Nov 25, 2:55 am)30.39 "Hg (Nov 25, 2:55 am)
Low27 °F (Dec 9, 5:55 am)71% (Dec 1, 1:25 pm)29.68 "Hg (Dec 8, 6:55 pm)
Average41 °F92%30.07 "Hg
* Reported Nov 24 11:55 pm — Dec 9 11:55 pm, Hoofddorp. Weather by CustomWeather, © 2022

Note: Actual official high and low records may vary slightly from our data, if they occured in-between our weather recording intervals... More about our weather records

Hoofddorp Weather History for the Previous 24 Hours

Scroll right to see more
 ConditionsComfort  
Time TempWeatherWind HumidityBarometerVisibility
11:55 pm
Fri, Dec 9
30 °FIce fog.7 mph100%29.74 "Hg2 mi
11:25 pm30 °FIce fog.8 mph100%29.74 "Hg2 mi
10:55 pm30 °FIce fog.6 mph100%29.74 "Hg2 mi
10:25 pm32 °FIce fog.7 mph100%29.74 "Hg1 mi
9:55 pm32 °FPassing clouds.9 mph100%29.74 "Hg2 mi
9:25 pm32 °FPartly cloudy.8 mph100%29.74 "Hg1 mi
8:55 pm32 °FIce fog.8 mph100%29.74 "Hg1 mi
8:25 pm32 °FIce fog.7 mph100%29.74 "Hg1 mi
7:55 pm32 °FIce fog.9 mph100%29.71 "Hg1 mi
7:25 pm32 °FIce fog.7 mph100%29.71 "Hg0 mi
6:55 pm32 °FIce fog.7 mph100%29.71 "Hg0 mi
6:25 pm32 °FIce fog.8 mph100%29.71 "Hg0 mi
5:55 pm32 °FFog.6 mph100%29.71 "Hg1 mi
4:55 pm34 °FFog.9 mph93%29.71 "Hg1 mi
4:25 pm34 °FMore clouds than sun.8 mph100%29.71 "Hg1 mi
3:55 pm34 °FFog.6 mph100%29.68 "Hg2 mi
3:25 pm36 °FClear.5 mph93%29.68 "Hg4 mi
2:55 pm36 °FPassing clouds.6 mph93%29.68 "Hg4 mi
1:55 pm36 °FFog.7 mph93%29.71 "Hg2 mi
12:55 pm36 °FFog.6 mph100%29.71 "Hg1 mi
12:25 pm32 °FIce fog.6 mph100%29.71 "Hg1 mi
11:55 am32 °FIce fog.5 mph100%29.71 "Hg1 mi
11:25 am32 °FSleet. Cloudy.6 mph93%29.71 "Hg1 mi
10:55 am32 °FChilly.1 mph100%29.71 "Hg1 mi
10:25 am30 °FChilly.3 mph100%29.71 "Hg1 mi
9:55 am30 °FChilly.5 mph93%29.71 "Hg1 mi
9:25 am28 °FChilly.3 mph100%29.71 "Hg1 mi
8:55 am27 °FChilly.3 mph100%29.71 "Hg1 mi
8:25 am27 °FChilly.3 mph100%29.71 "Hg2 mi
7:55 am28 °FChilly.3 mph100%29.71 "Hg2 mi
6:55 am30 °FChilly.2 mph100%29.71 "Hg1 mi
5:55 am27 °FSleet. Overcast.2 mph100%29.71 "Hg3 mi
5:25 am28 °FIce fog.1 mph100%29.71 "Hg2 mi
4:55 am28 °FIce fog.3 mph100%29.71 "Hg0 mi
4:25 am28 °FPassing clouds.5 mph100%29.71 "Hg0 mi
3:55 am30 °FIce fog.3 mph93%29.71 "Hg3 mi
3:25 am28 °FLight fog.2 mph100%29.71 "Hg5 mi
2:55 am32 °FFog.2 mph93%29.71 "HgN/A
2:25 am32 °FFog.1 mph100%29.71 "HgN/A
1:55 am34 °FFog.1 mph100%29.71 "HgN/A
Weather by CustomWeather, © 2022

See weather overview